| time (UTC) | temp C | wind direction | speed KPH | gust KPH | rain 1hr cm | rain 24hr cm | rain mn cm | humidity % | barometer mb |
| 20260507030042 | 12 | 258 | 6.4 | 8.0 | 0.00 | 0.00 | 0.00 | 82 | 1021.2 |
| 20260507024535 | 12 | 225 | 6.4 | 12.9 | 0.00 | 0.00 | 0.00 | 82 | 1021.2 |
| 20260507023034 | 12 | 261 | 8.0 | 11.3 | 0.00 | 0.00 | 0.00 | 83 | 1021.1 |
| 20260507021547 | 12 | 162 | 6.4 | 9.7 | 0.00 | 0.00 | 0.00 | 83 | 1021.1 |
| 20260507020039 | 12 | 218 | 0.0 | 11.3 | 0.00 | 0.00 | 0.00 | 84 | 1021.1 |
| 20260507014532 | 12 | 360 | 8.0 | 9.7 | 0.00 | 0.00 | 0.00 | 84 | 1021.3 |
| 20260507013050 | 12 | 251 | 8.0 | 12.9 | 0.00 | 0.00 | 0.00 | 84 | 1021.3 |
| 20260507011542 | 12 | 360 | 6.4 | 11.3 | 0.00 | 0.00 | 0.00 | 85 | 1021.3 |
| 20260507010031 | 12 | 283 | 6.4 | 12.9 | 0.00 | 0.00 | 0.00 | 84 | 1021.3 |
| 20260507004549 | 12 | 250 | 6.4 | 12.9 | 0.00 | 0.00 | 0.00 | 84 | 1021.4 |
| 20260507003102 | 12 | 267 | 0.0 | 9.7 | 0.00 | 0.00 | 0.00 | 85 | 1021.3 |
| 20260507001537 | 12 | 250 | 8.0 | 17.7 | 0.00 | 0.00 | 0.00 | 87 | 1021.3 |
| 20260507000105 | 12 | 207 | 4.8 | 8.0 | 0.00 | 0.00 | 0.00 | 87 | 1021.4 |
| 20260506234559 | 12 | 254 | 0.0 | 6.4 | 0.00 | 0.00 | 0.00 | 88 | 1021.4 |
| 20260506233035 | 12 | 259 | 4.8 | 8.0 | 0.00 | 0.00 | 0.00 | 88 | 1021.5 |
| 20260506231549 | 12 | 249 | 9.7 | 16.1 | 0.00 | 0.00 | 0.00 | 87 | 1021.6 |
| 20260506230039 | 12 | 243 | 11.3 | 16.1 | 0.00 | 0.00 | 0.00 | 86 | 1021.7 |
| 20260506224534 | 12 | 360 | 8.0 | 16.1 | 0.00 | 0.00 | 0.00 | 85 | 1021.8 |
| 20260506223032 | 12 | 258 | 9.7 | 17.7 | 0.00 | 0.00 | 0.00 | 85 | 1021.8 |
| 20260506221542 | 12 | 241 | 9.7 | 16.1 | 0.00 | 0.00 | 0.00 | 84 | 1021.8 |
| 20260506220109 | 12 | 241 | 8.0 | 16.1 | 0.00 | 0.00 | 0.00 | 83 | 1021.8 |
| 20260506214545 | 12 | 218 | 9.7 | 16.1 | 0.00 | 0.00 | 0.00 | 84 | 1021.7 |
| 20260506213040 | 12 | 360 | 11.3 | 24.1 | 0.00 | 0.00 | 0.00 | 84 | 1021.7 |
| 20260506211536 | 12 | 227 | 8.0 | 12.9 | 0.00 | 0.00 | 0.00 | 83 | 1021.7 |
| 20260506210104 | 12 | 228 | 3.2 | 11.3 | 0.00 | 0.00 | 0.00 | 83 | 1021.7 |
| 20260506204556 | 12 | 261 | 6.4 | 16.1 | 0.00 | 0.00 | 0.00 | 83 | 1021.7 |
| 20260506203054 | 12 | 257 | 6.4 | 11.3 | 0.00 | 0.00 | 0.00 | 85 | 1021.6 |
| 20260506201605 | 12 | 241 | 4.8 | 14.5 | 0.00 | 0.00 | 0.00 | 85 | 1021.6 |
| 20260506200110 | 12 | 240 | 6.4 | 14.5 | 0.00 | 0.00 | 0.00 | 85 | 1021.5 |
| 20260506194546 | 12 | 251 | 6.4 | 14.5 | 0.00 | 0.00 | 0.00 | 86 | 1021.4 |
| 20260506193039 | 12 | 225 | 8.0 | 14.5 | 0.00 | 0.00 | 0.00 | 86 | 1021.4 |
| 20260506191537 | 12 | 234 | 6.4 | 12.9 | 0.00 | 0.00 | 0.00 | 86 | 1021.3 |
| 20260506190044 | 12 | 249 | 6.4 | 11.3 | 0.00 | 0.00 | 0.00 | 86 | 1021.1 |
| 20260506184559 | 12 | 251 | 3.2 | 11.3 | 0.00 | 0.00 | 0.00 | 86 | 1021.0 |
| 20260506183054 | 12 | 246 | 4.8 | 11.3 | 0.00 | 0.00 | 0.00 | 86 | 1020.9 |
| 20260506181547 | 11 | 233 | 0.0 | 6.4 | 0.00 | 0.00 | 0.00 | 86 | 1021.0 |
| 20260506180040 | 12 | 260 | 1.6 | 6.4 | 0.00 | 0.00 | 0.00 | 85 | 1021.1 |
| 20260506174533 | 11 | 248 | 1.6 | 11.3 | 0.00 | 0.00 | 0.00 | 84 | 1021.1 |
| 20260506173046 | 12 | 248 | 1.6 | 12.9 | 0.00 | 0.00 | 0.00 | 83 | 1021.0 |
| 20260506171543 | 12 | 202 | 3.2 | 9.7 | 0.00 | 0.00 | 0.00 | 84 | 1020.8 |
| 20260506170110 | 12 | 197 | 4.8 | 8.0 | 0.00 | 0.00 | 0.00 | 84 | 1020.8 |
| 20260506164546 | 12 | 279 | 0.0 | 4.8 | 0.00 | 0.00 | 0.00 | 83 | 1020.7 |
| 20260506163040 | 12 | 261 | 0.0 | 0.0 | 0.00 | 0.00 | 0.00 | 83 | 1020.6 |
| 20260506161537 | 12 | 214 | 4.8 | 6.4 | 0.00 | 0.00 | 0.00 | 83 | 1020.6 |
| 20260506160105 | 12 | 292 | 1.6 | 11.3 | 0.00 | 0.00 | 0.00 | 83 | 1020.7 |
| 20260506154538 | 12 | 360 | 1.6 | 8.0 | 0.00 | 0.00 | 0.00 | 83 | 1020.3 |
| 20260506153033 | 12 | 225 | 3.2 | 8.0 | 0.00 | 0.00 | 0.00 | 83 | 1020.3 |
| 20260506151547 | 12 | 223 | 1.6 | 9.7 | 0.00 | 0.00 | 0.00 | 83 | 1020.2 |
| 20260506150038 | 11 | 225 | 0.0 | 0.0 | 0.00 | 0.00 | 0.00 | 84 | 1019.9 |
| 20260506144553 | 11 | 360 | 0.0 | 0.0 | 0.00 | 0.00 | 0.00 | 83 | 1019.8 |
| 20260506143045 | 11 | 238 | 0.0 | 4.8 | 0.00 | 0.00 | 0.00 | 83 | 1019.8 |
| 20260506141542 | 11 | 227 | 0.0 | 4.8 | 0.00 | 0.00 | 0.00 | 84 | 1019.8 |
| 20260506140030 | 11 | 254 | 0.0 | 0.0 | 0.00 | 0.00 | 0.00 | 84 | 1019.6 |
| 20260506134548 | 11 | 232 | 0.0 | 1.6 | 0.00 | 0.00 | 0.00 | 84 | 1019.3 |
| 20260506133042 | 11 | 229 | 0.0 | 0.0 | 0.00 | 0.00 | 0.00 | 85 | 1019.2 |
| 20260506131540 | 11 | 229 | 0.0 | 0.0 | 0.00 | 0.00 | 0.00 | 85 | 1019.1 |
| 20260506130047 | 11 | 231 | 0.0 | 0.0 | 0.00 | 0.00 | 0.00 | 85 | 1019.4 |
| 20260506124600 | 11 | 250 | 0.0 | 0.0 | 0.00 | 0.00 | 0.00 | 86 | 1019.2 |
| 20260506123036 | 11 | 237 | 0.0 | 0.0 | 0.00 | 0.00 | 0.00 | 86 | 1019.2 |
| 20260506121549 | 11 | 248 | 0.0 | 0.0 | 0.00 | 0.00 | 0.00 | 86 | 1019.1 |
| 20260506120040 | 11 | 227 | 0.0 | 0.0 | 0.00 | 0.00 | 0.00 | 87 | 1018.8 |
| 20260506114533 | 11 | 229 | 0.0 | 0.0 | 0.00 | 0.00 | 0.00 | 87 | 1019.0 |
| 20260506113046 | 11 | 246 | 0.0 | 0.0 | 0.00 | 0.00 | 0.00 | 87 | 1019.0 |
| 20260506111542 | 11 | 242 | 0.0 | 3.2 | 0.00 | 0.00 | 0.00 | 86 | 1018.8 |
| 20260506110030 | 11 | 210 | 1.6 | 6.4 | 0.00 | 0.00 | 0.00 | 86 | 1018.7 |
| 20260506104550 | 11 | 254 | 0.0 | 0.0 | 0.00 | 0.00 | 0.00 | 87 | 1018.6 |
| 20260506103044 | 11 | 223 | 0.0 | 0.0 | 0.00 | 0.00 | 0.00 | 86 | 1018.4 |
| 20260506101541 | 11 | 360 | 0.0 | 0.0 | 0.00 | 0.00 | 0.00 | 86 | 1018.3 |
| 20260506100030 | 11 | 241 | 0.0 | 0.0 | 0.00 | 0.00 | 0.00 | 86 | 1018.4 |
| 20260506094548 | 11 | 241 | 0.0 | 0.0 | 0.00 | 0.00 | 0.00 | 85 | 1018.4 |
| 20260506093038 | 11 | 242 | 0.0 | 0.0 | 0.00 | 0.00 | 0.00 | 85 | 1018.3 |
| 20260506091530 | 11 | 271 | 0.0 | 0.0 | 0.00 | 0.00 | 0.00 | 85 | 1018.2 |
| 20260506090042 | 11 | 214 | 0.0 | 0.0 | 0.00 | 0.00 | 0.00 | 85 | 1018.2 |
| 20260506084535 | 12 | 252 | 0.0 | 0.0 | 0.00 | 0.00 | 0.00 | 85 | 1018.0 |
| 20260506083033 | 12 | 286 | 0.0 | 0.0 | 0.00 | 0.00 | 0.00 | 85 | 1018.1 |
| 20260506081546 | 12 | 300 | 0.0 | 0.0 | 0.00 | 0.00 | 0.00 | 85 | 1018.0 |
| 20260506073053 | 12 | 299 | 0.0 | 0.0 | 0.00 | 0.00 | 0.00 | 84 | 1017.4 |
| 20260506071548 | 12 | 299 | 0.0 | 0.0 | 0.00 | 0.00 | 0.00 | 84 | 1017.4 |
| 20260506061539 | 12 | 360 | 0.0 | 0.0 | 0.00 | 0.00 | 0.00 | 83 | 1017.4 |
| 20260506044539 | 12 | 230 | 0.0 | 0.0 | 0.00 | 0.00 | 0.00 | 83 | 1017.2 |
| 20260506043033 | 12 | 246 | 0.0 | 0.0 | 0.00 | 0.00 | 0.00 | 83 | 1017.0 |
| 20260506041530 | 12 | 250 | 3.2 | 9.7 | 0.00 | 0.00 | 0.00 | 83 | 1016.8 |
| 20260506040038 | 13 | 244 | 0.0 | 0.0 | 0.00 | 0.00 | 0.00 | 83 | 1016.7 |
| 20260506034531 | 13 | 265 | 0.0 | 0.0 | 0.00 | 0.00 | 0.00 | 83 | 1016.5 |
| 20260506033049 | 13 | 231 | 0.0 | 8.0 | 0.00 | 0.00 | 0.00 | 83 | 1016.4 |
| 20260506031542 | 13 | 288 | 0.0 | 6.4 | 0.00 | 0.00 | 0.00 | 82 | 1016.4 |